EDT,Max TemperatureF,Mean TemperatureF,Min TemperatureF,Max Dew PointF,MeanDew PointF,Min DewpointF,Max Humidity, Mean Humidity, Min Humidity, Max Sea Level PressureIn, Mean Sea Level PressureIn, Min Sea Level PressureIn, Max VisibilityMiles, Mean VisibilityMiles, Min VisibilityMiles, Max Wind SpeedMPH, Mean Wind SpeedMPH, Max Gust SpeedMPH,PrecipitationIn, CloudCover, Events, WindDirDegrees
2012-10-1,64,56,48,59,54,48,100,90,68,30.00,29.95,29.92,10,10,5,5,1,,0.00,4,Rain,327
2012-10-2,66,62,59,66,63,59,100,100,100,29.97,29.93,29.90,10,7,2,10,2,,1.45,8,Rain,344
2012-10-3,82,74,66,72,69,66,100,93,66,30.14,30.07,29.97,10,6,0,8,2,,0.01,4,Fog-Rain,177
2012-10-4,78,68,57,70,66,57,100,91,61,30.18,30.14,30.12,10,9,5,8,1,,0.00,3,Rain,236
2012-10-5,78,64,51,63,58,52,100,82,47,30.17,30.10,29.98,10,10,4,13,2,,0.00,0,,181
2012-10-6,78,64,50,64,56,45,100,82,57,30.05,29.94,29.87,10,10,4,10,3,17,0.00,2,,293
2012-10-7,51,46,41,50,46,41,100,87,76,30.19,30.10,30.03,10,9,0,7,3,,0.06,7,Fog-Rain,341
2012-10-8,50,44,39,46,43,39,100,91,76,30.31,30.24,30.19,10,9,0,10,3,,0.01,6,Fog-Rain,345
2012-10-9,59,50,42,54,48,43,100,89,72,30.22,30.15,30.08,10,10,7,8,5,,0.03,8,Rain,348
2012-10-10,69,56,44,54,49,43,100,76,49,30.11,30.00,29.90,10,9,1,13,3,18,0.00,3,,228
2012-10-11,62,50,37,45,38,32,100,69,39,30.32,30.23,30.12,10,10,10,7,3,,0.00,0,,226
2012-10-12,68,52,37,50,42,37,100,76,40,30.43,30.24,30.15,10,10,4,15,3,23,0.00,0,,339
2012-10-13,60,48,35,45,38,34,100,74,45,30.53,30.43,30.34,10,10,10,12,3,16,0.00,0,,146
2012-10-14,73,58,44,59,52,43,100,78,53,30.31,30.15,29.97,10,10,10,17,8,33,0.00,1,,170
2012-10-15,71,58,46,64,60,46,100,90,73,29.97,29.80,29.68,10,9,0,13,7,26,0.01,3,Fog-Rain,177
2012-10-16,64,52,39,50,45,39,100,80,49,29.95,29.90,29.84,10,10,10,10,2,16,0.00,1,,254
2012-10-17,68,54,39,54,47,39,100,87,49,30.02,29.96,29.92,10,10,3,9,1,,0.00,0,,152
2012-10-18,71,56,42,64,54,43,100,92,64,29.96,29.88,29.78,10,9,1,12,4,31,0.57,4,Rain-Thunderstorm,139
2012-10-19,73,60,48,64,57,46,100,87,49,29.77,29.71,29.64,10,7,1,16,2,21,0.01,4,Rain,212
2012-10-20,68,54,41,52,44,41,100,77,40,29.95,29.80,29.70,10,10,10,14,2,21,0.00,1,,221
2012-10-21,64,50,35,46,42,36,100,80,42,30.15,30.08,29.96,10,10,3,7,1,,0.00,0,,239
2012-10-22,71,53,35,50,44,36,100,76,38,30.23,30.17,30.13,10,10,7,8,1,,0.00,0,,176
2012-10-23,80,62,44,59,53,45,100,77,42,30.16,30.10,30.05,10,10,10,10,2,9,0.00,0,,168
2012-10-24,82,66,50,61,55,50,100,79,35,30.14,30.11,30.07,10,10,7,6,0,,0.00,0,,181
2012-10-25,71,60,50,63,58,50,100,93,73,30.22,30.17,30.12,10,7,0,7,2,,0.00,2,Fog,356
2012-10-26,68,62,55,63,60,55,100,94,78,30.20,30.13,30.05,10,7,0,7,3,,0.00,7,Fog,10
2012-10-27,66,62,59,61,56,50,100,84,63,30.04,29.93,29.85,10,9,3,12,4,16,0.00,4,Rain,359
2012-10-28,59,55,51,55,51,46,100,82,67,29.85,29.73,29.60,10,9,5,18,10,26,0.09,8,Rain,335
2012-10-29,51,48,44,52,47,43,100,96,93,29.60,29.34,28.88,10,7,4,23,13,34,1.31,8,Rain,291
2012-10-30,44,40,37,43,39,36,100,93,81,29.48,29.23,28.89,10,10,7,15,10,23,0.21,8,Rain,182
2012-10-31,53,45,37,41,38,36,100,80,54,29.68,29.58,29.47,10,10,10,14,3,18,0.00,6,Rain,176